Wind_Speed
120 121 121 122 122 122 122 122 122 122 122 121 121 121 120 120 119 119 118 118 118 117 117 116 114 113 112 111 110 109 109 108 108 108 107 107 107 107 107 108 108 108
120 120 121 121 121 121 121 121 120 120 120 120 119 119 118 118 117 116 116 115 114 114 113 112 112 111 111 110 109 108 108 107 107 106 106 105 105 105 106 106 107 107
118 118 118 118 118 118 118 118 118 118 118 117 117 116 116 115 114 113 112 111 111 110 110 109 109 109 109 108 108 108 108 107 106 106 105 105 105 104 105 105 105 106
115 115 115 115 116 116 116 115 115 115 114 114 113 112 112 111 110 110 109 108 108 107 107 107 107 107 107 107 107 107 107 107 106 106 105 105 105 105 104 104 104 105
112 112 112 113 113 113 112 112 111 111 110 110 109 108 108 108 107 106 106 106 106 106 106 106 106 105 105 105 105 105 106 106 106 106 105 105 105 105 105 104 104 104
109 109 109 109 109 109 108 107 107 107 106 106 105 105 105 105 105 105 104 104 105 105 105 105 105 104 104 103 104 104 104 104 104 104 104 104 104 104 104 103 102 102
106 105 105 105 105 105 104 104 104 104 103 103 103 103 104 104 104 104 104 104 104 104 104 104 103 103 102 102 102 102 101 101 101 101 101 101 102 102 102 102 101 100
102 102 102 102 102 102 102 102 103 103 103 102 102 103 104 104 104 104 103 103 103 102 102 102 101 101 100 100 99 99 99 99 99 99 98 99 99 100 100 100 99 99
100 100 100 100 101 102 102 102 103 103 103 102 102 103 103 103 103 102 102 101 101 100 100 100 99 99 98 98 98 98 98 98 98 97 97 97 97 97 98 98 98 98
99 99 100 100 101 101 102 103 103 103 102 102 102 101 101 101 101 100 100 100 99 99 99 98 98 97 97 97 97 97 96 96 97 96 96 96 96 96 96 96 96 96
99 99 99 100 100 101 101 102 102 102 102 101 101 100 100 100 99 99 99 99 99 98 98 97 97 97 97 96 96 96 96 96 96 96 96 96 95 95 94 94 95 95
98 98 99 99 99 99 100 100 100 100 100 100 100 99 99 98 98 98 98 98 98 98 97 97 97 96 96 95 95 95 95 95 95 95 95 95 95 94 94 93 93 93
97 97 98 98 98 98 98 98 98 98 98 98 98 97 97 97 97 97 97 97 97 96 96 96 96 95 95 94 94 93 93 93 93 93 93 93 93 93 93 92 91 91
95 95 95 95 95 95 95 95 95 96 96 96 96 96 95 95 95 95 95 95 94 94 94 94 93 93 92 91 91 90 90 89 89 90 90 90 90 91 91 90 89 89
93 93 94 94 94 94 94 94 94 95 95 95 95 94 94 93 93 93 92 92 92 91 91 90 90 89 89 88 87 86 85 85 85 86 87 87 87 87 87 87 87 86
93 93 94 94 94 94 94 94 94 94 94 94 94 93 92 92 92 91 91 90 89 88 88 87 87 86 85 85 84 83 82 81 82 83 84 84 84 84 84 83 83 83
94 94 95 95 95 95 94 94 94 94 93 92 92 91 91 90 90 89 88 87 86 86 85 85 84 83 82 82 81 80 79 78 79 80 82 82 82 81 80 80 80 80
95 95 95 94 94 93 93 92 92 91 91 90 89 89 88 88 88 87 86 85 84 83 83 82 82 81 80 79 78 78 77 76 76 77 79 79 79 79 78 77 77 78
94 93 93 92 91 90 89 89 89 88 88 87 86 85 85 85 84 83 83 82 81 80 80 80 80 79 77 77 76 76 75 73 73 75 76 76 77 76 75 75 76 77
92 91 90 88 87 86 86 86 85 84 84 83 82 82 81 81 80 80 80 79 78 78 77 78 78 76 75 75 75 74 73 72 72 74 74 75 75 74 73 74 75 76
88 87 86 85 83 83 82 82 81 81 80 79 78 78 78 78 78 78 77 77 77 76 76 76 76 75 74 73 74 73 73 72 72 73 74 74 74 73 72 73 74 75
85 84 82 81 80 80 80 79 79 78 77 77 76 76 77 76 76 76 76 76 75 75 75 76 76 75 73 73 73 73 72 71 72 73 74 74 73 72 72 72 74 74
82 81 79 78 78 78 78 78 77 77 76 76 76 76 76 76 76 76 76 75 75 74 75 75 75 75 73 72 72 72 72 71 72 73 74 74 73 72 71 71 73 73
79 78 77 77 77 78 78 77 77 77 76 76 76 76 76 76 76 76 76 75 74 74 74 74 75 75 74 72 72 71 71 71 72 73 74 74 73 71 70 71 71 71
78 78 77 77 78 78 78 77 77 76 76 76 76 76 76 76 76 76 76 75 74 74 73 74 74 75 74 73 72 71 70 70 71 72 73 73 72 71 70 70 70 69
78 78 78 78 78 78 78 77 77 76 76 76 76 75 75 76 76 76 75 76 75 73 73 73 73 74 74 73 72 71 70 69 70 71 72 72 71 70 69 70 68 66
Wind_Direction
283 283 283 283 283 283 283 283 283 283 283 283 283 283 283 283 283 283 283 282 282 282 282 282 282 281 281 280 279 279 278 277 277 276 276 275 275 274 274 273 273 273
283 283 282 282 282 282 282 282 282 282 282 282 282 282 283 282 282 282 282 282 282 282 281 281 281 281 280 280 279 279 278 277 277 276 276 275 274 274 274 273 273 272
282 282 282 282 282 282 282 282 282 282 282 282 283 283 283 282 282 282 282 282 281 281 281 280 280 280 280 280 280 279 279 278 277 277 276 275 274 273 273 272 272 272
281 282 282 282 282 282 282 282 283 283 283 283 283 283 282 282 282 282 282 281 281 281 280 280 280 280 280 280 280 279 279 279 278 277 276 276 275 274 273 272 271 271
282 282 282 282 283 283 283 283 283 283 283 283 283 282 282 282 282 282 282 282 281 281 281 281 280 280 280 280 279 279 279 279 278 278 277 276 275 275 274 273 272 271
283 283 283 283 283 283 283 283 283 283 283 283 283 283 283 283 283 283 283 282 282 282 282 282 281 281 280 280 280 279 279 279 278 278 278 277 276 276 275 274 273 272
283 283 283 283 283 284 284 284 284 284 284 284 284 284 284 284 284 284 284 284 284 283 283 283 282 282 282 281 281 280 280 280 279 279 279 278 278 277 276 275 274 273
284 284 285 285 285 285 285 285 285 286 286 286 286 286 286 286 286 286 285 285 285 284 284 284 284 283 283 283 282 282 282 281 281 280 279 279 278 278 277 277 276 275
286 286 286 287 287 287 287 287 287 288 288 288 287 287 287 287 287 287 287 286 286 286 285 285 285 284 284 284 283 283 283 282 282 281 280 279 279 278 278 277 277 276
288 288 288 288 289 289 289 289 289 289 289 288 288 288 288 288 288 288 287 287 287 286 286 285 285 285 284 284 284 283 283 282 282 281 281 280 279 279 278 278 278 277
289 289 290 290 290 289 289 289 289 289 289 289 289 289 289 288 288 288 288 287 287 287 286 286 286 285 285 284 284 283 283 282 282 282 281 281 280 279 279 278 278 277
290 290 290 290 289 289 289 289 289 290 290 290 289 289 289 289 289 289 288 288 288 287 287 286 286 285 285 284 284 284 283 283 282 282 282 281 281 280 280 279 278 278
290 289 289 289 289 289 289 289 290 290 290 290 290 290 290 290 289 289 289 288 288 287 287 286 286 286 285 285 284 284 283 283 283 282 282 281 281 280 280 279 278 278
289 289 289 289 290 290 290 290 290 291 291 291 291 291 290 290 290 289 289 288 288 288 287 287 286 286 286 285 284 284 284 283 283 282 281 281 280 280 279 279 279 278
290 290 291 291 291 291 292 292 292 292 292 292 292 291 291 291 290 290 289 289 289 288 288 287 287 286 286 285 285 284 284 284 283 282 281 281 280 280 280 280 279 279
292 293 293 293 294 294 294 294 294 293 293 292 292 292 292 291 291 291 290 290 290 289 289 288 288 287 287 286 286 285 285 284 284 283 282 281 281 280 280 280 280 279
295 295 295 295 295 295 295 294 294 293 293 293 293 292 292 292 291 291 291 291 291 290 290 290 289 289 288 288 287 286 285 285 284 283 283 282 282 281 281 281 280 280
295 295 295 295 295 294 294 294 293 293 293 293 292 292 292 292 292 292 292 292 291 291 291 291 290 290 290 289 288 287 286 286 285 284 284 283 283 283 282 282 282 281
295 294 294 294 294 294 294 293 293 292 292 293 292 292 292 292 292 292 292 292 292 292 291 291 291 290 290 290 289 288 288 287 286 285 284 284 284 283 283 283 283 282
294 294 294 294 294 294 294 293 293 293 293 293 293 293 293 293 292 292 292 292 292 292 292 292 291 291 291 291 290 290 289 289 288 286 285 285 284 284 284 284 283 283
295 295 295 295 295 294 294 294 294 294 294 294 294 294 293 293 293 293 293 293 293 293 293 293 292 292 292 292 291 291 290 290 289 287 287 286 286 285 285 285 284 283
296 296 296 296 296 295 295 295 295 295 295 295 295 295 294 294 294 294 294 294 294 294 294 293 293 293 293 292 292 291 291 290 289 288 287 287 286 286 286 285 284 284
296 296 297 297 297 296 296 296 296 297 297 296 296 296 295 295 295 295 295 295 295 295 294 294 294 293 293 293 292 292 291 291 290 289 288 287 286 286 286 285 284 284
297 297 298 298 298 298 297 298 298 298 298 297 297 296 296 296 296 296 296 295 295 295 295 295 294 294 293 292 292 291 291 290 289 289 288 287 287 286 286 285 284 284
299 299 300 299 299 299 299 299 299 298 298 298 298 297 297 297 297 296 296 296 295 295 295 295 294 293 293 292 292 291 290 290 289 288 288 287 287 287 286 285 285 285
300 300 300 300 299 299 299 299 299 299 299 298 298 298 298 297 297 297 296 296 295 295 295 294 294 293 293 292 292 291 290 290 289 288 288 287 288 288 287 286 286 286
Height
10258 10254 10250 10246 10242 10237 10232 10228 10225 10221 10217 10213 10208 10205 10201 10197 10194 10191 10187 10183 10178 10174 10170 10166 10164 10161 10159 10157 10155 10154 10152 10149 10147 10145 10144 10142 10139 10136 10133 10130 10128 10126
10242 10238 10234 10230 10225 10221 10216 10212 10208 10204 10200 10196 10192 10188 10184 10181 10177 10174 10171 10167 10162 10158 10154 10151 10148 10144 10141 10138 10137 10135 10133 10132 10130 10128 10127 10125 10122 10120 10117 10114 10112 10109
10227 10223 10219 10214 10210 10205 10201 10197 10192 10188 10184 10180 10176 10172 10168 10164 10160 10158 10155 10151 10147 10143 10139 10136 10132 10129 10125 10122 10120 10117 10114 10113 10111 10109 10108 10106 10104 10103 10101 10098 10095 10092
10212 10208 10203 10199 10194 10189 10185 10181 10177 10172 10168 10164 10161 10156 10152 10148 10144 10141 10138 10135 10131 10127 10124 10120 10117 10113 10110 10107 10104 10100 10096 10094 10092 10090 10089 10087 10084 10083 10082 10080 10079 10076
10197 10193 10188 10184 10179 10174 10170 10166 10162 10157 10153 10149 10146 10141 10136 10132 10129 10126 10122 10118 10114 10111 10108 10104 10100 10097 10095 10092 10088 10084 10080 10077 10073 10071 10069 10067 10065 10063 10062 10061 10060 10059
10182 10178 10173 10168 10163 10158 10154 10150 10146 10141 10137 10134 10130 10125 10121 10116 10113 10110 10106 10102 10098 10094 10091 10087 10083 10081 10078 10075 10071 10067 10064 10060 10057 10053 10050 10048 10045 10043 10041 10041 10040 10039
10167 10163 10158 10153 10148 10143 10139 10134 10129 10125 10122 10119 10115 10109 10104 10100 10096 10093 10089 10085 10081 10077 10073 10069 10066 10063 10060 10057 10053 10049 10046 10043 10040 10037 10033 10030 10026 10023 10021 10020 10020 10019
10151 10147 10142 10137 10132 10127 10122 10118 10112 10108 10105 10102 10098 10093 10088 10083 10079 10076 10072 10068 10064 10060 10056 10052 10048 10045 10042 10039 10035 10032 10028 10025 10022 10020 10017 10013 10009 10005 10002 10000 9999 9999
10136 10131 10126 10121 10116 10111 10106 10101 10096 10092 10088 10085 10082 10077 10072 10067 10063 10059 10055 10051 10047 10043 10039 10035 10031 10028 10025 10022 10019 10015 10012 10008 10004 10002 10000 9997 9994 9990 9986 9983 9981 9980
10120 10116 10111 10106 10101 10095 10090 10084 10080 10076 10072 10068 10065 10061 10057 10052 10048 10043 10039 10035 10031 10027 10023 10019 10016 10012 10009 10006 10003 9999 9996 9992 9988 9985 9983 9980 9977 9974 9971 9968 9965 9963
10105 10101 10096 10091 10086 10081 10075 10070 10065 10061 10057 10052 10048 10045 10041 10036 10032 10028 10023 10019 10015 10011 10007 10003 10000 9996 9993 9990 9987 9983 9980 9977 9973 9970 9966 9963 9960 9958 9956 9953 9950 9947
10092 10087 10082 10077 10072 10067 10062 10056 10052 10047 10042 10037 10033 10029 10025 10021 10016 10011 10007 10003 9999 9995 9991 9987 9983 9980 9977 9974 9971 9967 9964 9961 9957 9953 9950 9946 9943 9940 9938 9938 9935 9933
10079 10074 10069 10064 10059 10054 10048 10043 10038 10033 10028 10022 10018 10014 10010 10006 10001 9996 9992 9987 9983 9979 9975 9971 9967 9964 9961 9959 9955 9952 9948 9945 9942 9938 9934 9930 9927 9925 9922 9921 9920 9919
10066 10061 10056 10051 10046 10040 10035 10030 10025 10020 10014 10009 10004 10000 9996 9992 9987 9982 9978 9973 9969 9965 9960 9956 9953 9949 9947 9944 9940 9937 9934 9932 9928 9923 9918 9915 9912 9910 9907 9905 9905 9904
10053 10048 10042 10037 10032 10027 10022 10017 10011 10006 10001 9995 9991 9986 9982 9978 9973 9968 9964 9959 9955 9951 9947 9943 9939 9936 9933 9930 9927 9924 9921 9918 9914 9908 9903 9900 9898 9896 9893 9891 9890 9888
10039 10034 10028 10023 10018 10013 10007 10002 9997 9992 9987 9982 9977 9973 9968 9963 9958 9954 9950 9946 9942 9938 9933 9929 9926 9922 9919 9916 9913 9911 9908 9905 9900 9893 9888 9886 9884 9882 9880 9878 9876 9874
10025 10019 10014 10009 10004 9999 9994 9989 9983 9978 9973 9968 9964 9959 9954 9949 9944 9940 9936 9932 9928 9924 9919 9915 9911 9908 9905 9902 9899 9896 9895 9892 9887 9880 9874 9871 9869 9868 9867 9865 9862 9860
10012 10006 10001 9996 9991 9986 9981 9975 9970 9964 9960 9955 9951 9946 9941 9935 9931 9926 9922 9918 9914 9911 9906 9902 9897 9894 9891 9889 9885 9882 9880 9879 9874 9867 9862 9858 9856 9854 9853 9851 9849 9845
9999 9993 9988 9984 9979 9974 9968 9962 9957 9951 9947 9943 9938 9933 9928 9923 9918 9914 9909 9905 9902 9898 9894 9889 9885 9882 9879 9876 9872 9868 9866 9865 9861 9855 9850 9847 9844 9842 9841 9839 9835 9831
9986 9981 9976 9971 9966 9961 9955 9949 9944 9939 9935 9931 9926 9921 9916 9911 9906 9902 9897 9893 9890 9886 9882 9877 9872 9870 9867 9863 9859 9855 9853 9851 9847 9841 9837 9834 9832 9831 9829 9826 9822 9818
9973 9968 9963 9958 9953 9947 9941 9936 9931 9927 9923 9919 9914 9909 9904 9899 9895 9891 9886 9881 9878 9875 9870 9864 9859 9857 9855 9851 9846 9843 9840 9838 9833 9828 9824 9821 9819 9819 9817 9813 9809 9805
9960 9955 9950 9945 9940 9934 9928 9923 9919 9915 9911 9907 9902 9897 9892 9888 9883 9879 9874 9870 9866 9863 9858 9852 9847 9845 9843 9839 9834 9831 9828 9825 9820 9815 9812 9809 9807 9807 9805 9801 9797 9793
9947 9942 9937 9933 9928 9922 9916 9911 9907 9903 9899 9894 9890 9885 9880 9875 9871 9867 9862 9858 9854 9851 9846 9840 9835 9832 9831 9827 9823 9820 9817 9813 9808 9803 9800 9797 9796 9795 9794 9790 9785 9782
9934 9930 9925 9920 9915 9909 9904 9899 9895 9891 9887 9882 9877 9873 9868 9863 9859 9854 9850 9846 9843 9839 9834 9829 9824 9820 9818 9816 9813 9809 9806 9802 9797 9792 9788 9785 9784 9783 9782 9779 9774 9772
9921 9917 9912 9907 9902 9896 9891 9887 9883 9879 9875 9870 9865 9861 9856 9851 9846 9842 9838 9834 9831 9828 9824 9819 9814 9808 9805 9804 9801 9799 9796 9793 9787 9781 9777 9773 9772 9772 9770 9766 9763 9761
9910 9905 9900 9894 9889 9885 9880 9875 9871 9867 9863 9858 9853 9849 9845 9839 9835 9831 9827 9822 9819 9817 9813 9808 9804 9798 9793 9791 9789 9786 9784 9782 9777 9771 9766 9762 9760 9760 9757 9753 9751 9750